Regional Weather Roundup
Issued by NWS Little Rock, AR

Home | Current Version | Previous Version | Graphics & Text | Print | Product List | Glossary On
Versions: 1 2 3 4 5 6 7 8 9 10 11 12 13 14 15 16 17 18 19 20 21 22 23 24 25 26 27 28 29 30 31 32 33 34 35 36 37 38 39 40 41 42 43 44 45 46 47 48 49 50
000
ASUS44 KLZK 010905
RWRLZK

WEATHER ROUNDUP FOR ARKANSAS
NATIONAL WEATHER SERVICE LITTLE ROCK AR
400 AM CDT WED JUL 01 2015

NOTE: "FAIR" INDICATES FEW OR NO CLOUDS BELOW 12,000 FEET WITH NO
SIGNIFICANT WEATHER AND/OR OBSTRUCTIONS TO VISIBILITY.

ARZ001-003-010-029-011000-
NORTHWEST ARKANSAS

CITY           SKY/WX    TMP DP  RH WIND       PRES   REMARKS
FAYETTEVILLE   MOCLDY    76  71  85 SW7       29.96R
FORT SMITH     PTCLDY    80  69  69 SW9       29.91F
HARRISON       PTCLDY    77  70  79 SW9G20    29.93S
BENTONVILLE    CLEAR     77  70  78 SW10      29.94R
ROGERS         PTCLDY    77  71  82 SW15G22   29.94S
SILOAM SPGS    CLEAR     75  66  73 SW12      29.97R
HIGHFILL       CLEAR     76  72  87 SW12      29.94R
$$

ARZ004-005-016-011000-
NORTH CENTRAL ARKANSAS

CITY           SKY/WX    TMP DP  RH WIND       PRES   REMARKS
BATESVILLE     CLEAR     75  70  83 W7        29.91R
FLIPPIN        CLEAR     75  70  83 SW6       29.89R
MTN HOME       CLEAR     73  70  90 SW3       29.91R
$$

ARZ040-041-011000-
WEST CENTRAL ARKANSAS

CITY           SKY/WX    TMP DP  RH WIND       PRES   REMARKS
MENA           CLEAR     77  72  83 W6        29.98F
MOUNT IDA      CLEAR     77  69  76 CALM      29.93F
$$

ARZ009-017-025-026-028-011000-
NORTHEAST ARKANSAS

CITY           SKY/WX    TMP DP  RH WIND       PRES   REMARKS
JONESBORO      CLEAR     76  71  85 SW12      29.89F
NEWPORT        CLEAR     78  72  82 SW9       29.92F
WALNUT RIDGE   PTCLDY    73  68  83 SW6       29.90S
BLYTHEVILLE    MOCLDY    77  71  82 SW9       29.90F
$$

ARZ022-023-033-042-044-011000-
CENTRAL ARKANSAS

CITY           SKY/WX    TMP DP  RH WIND       PRES   REMARKS
LITTLE ROCK    CLEAR     77  69  76 SW8       29.93F
N LITTLE ROCK    N/A     77  72  84 SW6       29.93F
JACKSONVILLE   CLEAR     76  71  84 W6        29.92F
SEARCY         CLEAR     75  72  90 VRB3      29.92F
HOT SPRINGS    CLEAR     75  70  84 W3        29.96F
RUSSELLVILLE   CLEAR     74  72  93 CALM      29.92F
CLINTON        FAIR      70  70 100 CALM      29.95R FOG
$$

ARZ036-011000-
EAST ARKANSAS

CITY           SKY/WX    TMP DP  RH WIND       PRES   REMARKS
WEST MEMPHIS   CLEAR     76  73  91 SW6       29.91F
$$

ARZ050-053-066-070-073-011000-
SOUTHWEST ARKANSAS

CITY           SKY/WX    TMP DP  RH WIND       PRES   REMARKS
ARKADELPHIA    FAIR      73  73 100 S5        29.96F
CAMDEN         CLEAR     72  66  83 CALM      29.96F
TEXARKANA      CLEAR     72  70  93 SW3       29.96F
EL DORADO      CLEAR     70  69  97 SW3       29.98F
DE QUEEN       PTCLDY    71  70  96 CALM      29.94F
$$

ARZ056-057-069-011000-
SOUTHEAST ARKANSAS

CITY           SKY/WX    TMP DP  RH WIND       PRES   REMARKS
PINE BLUFF     CLEAR     73  68  84 SW7       29.95F
STUTTGART      CLEAR     73  68  83 MISG      29.94F
MONTICELLO     CLEAR     73  71  93 SW6       29.97F

$$




USA.gov is the U.S. government's official web portal to all federal, state and local government web resources and services.